CW8014 Weather Reports


time (UTC)temp
C
wind
direction
speed
KPH
gust
KPH
rain 1hr
cm
rain 24hr
cm
rain mn
cm
humidity
%
barometer
mb
20260505035407 8 12 4.8 11.3 0.00 0.00 0.00 89 1012.0
20260505034407 8 66 3.2 6.4 0.00 0.00 0.00 89 1012.1
20260505030407 8 59 4.8 12.9 0.00 0.00 0.00 89 1012.3
20260505025407 8 56 4.8 12.9 0.00 0.00 0.00 89 1012.3
20260505024412 8 36 8.0 16.1 0.00 0.00 0.00 89 1012.4
20260505022412 8 351 6.4 17.7 0.00 0.00 0.00 89 1012.4
20260505021415 8 15 8.0 16.1 0.00 0.00 0.00 90 1012.5
20260505020412 8 36 4.8 11.3 0.00 0.00 0.00 90 1012.6
20260505014412 8 342 6.4 14.5 0.00 0.00 0.00 90 1012.7
20260505013415 8 360 8.0 17.7 0.00 0.00 0.00 90 1012.7
20260505012412 8 9 4.8 14.5 0.00 0.00 0.00 90 1012.8
20260505011412 8 12 6.4 12.9 0.00 0.00 0.00 90 1012.8
20260505010412 8 345 3.2 8.0 0.00 0.00 0.00 90 1012.8
20260505005415 8 333 3.2 11.3 0.00 0.00 0.00 90 1012.8
20260505004412 8 45 6.4 12.9 0.00 0.00 0.00 90 1012.9
20260505003412 8 327 4.8 14.5 0.00 0.00 0.00 91 1012.9
20260505002415 8 346 3.2 14.5 0.00 0.00 0.00 91 1013.0
20260505001412 8 11 4.8 12.9 0.00 0.00 0.00 91 1013.0
20260505000413 8 5 4.8 9.7 0.00 0.00 0.00 91 1013.1
20260504235412 8 5 4.8 9.7 0.00 0.00 0.00 91 1013.1
20260504233412 8 346 8.0 14.5 0.00 0.00 0.00 91 1013.1
20260504232412 8 355 6.4 16.1 0.00 0.00 0.00 90 1013.1
20260504231412 8 322 9.7 17.7 0.00 0.00 0.00 90 1013.2
20260504230412 8 17 8.0 16.1 0.00 0.00 0.00 90 1013.2
20260504223410 14 350 9.7 14.5 0.00 0.05 0.00 87 1012.6
20260504221410 14 350 9.7 14.5 0.00 0.05 0.00 87 1012.6
20260504220410 14 350 9.7 14.5 0.00 0.05 0.00 87 1012.6
20260504215410 14 350 9.7 14.5 0.00 0.05 0.00 87 1012.6
20260504214410 14 350 9.7 14.5 0.00 0.05 0.00 87 1012.6
20260504212410 14 350 9.7 14.5 0.00 0.05 0.00 87 1012.6
20260504211410 14 350 9.7 14.5 0.00 0.05 0.00 87 1012.6
20260504210413 14 350 9.7 14.5 0.00 0.05 0.00 87 1012.6
20260504205410 14 350 9.7 14.5 0.00 0.05 0.00 87 1012.6
20260504204410 14 350 9.7 14.5 0.00 0.05 0.00 87 1012.6
20260504203410 14 350 9.7 14.5 0.00 0.05 0.00 87 1012.6
20260504201410 14 350 9.7 14.5 0.00 0.05 0.00 87 1012.6
20260504200410 14 350 9.7 14.5 0.00 0.05 0.00 87 1012.6
20260504195413 14 350 9.7 14.5 0.00 0.05 0.00 87 1012.6
20260504194410 14 350 9.7 14.5 0.00 0.05 0.00 87 1012.6
20260504193410 14 350 9.7 14.5 0.00 0.05 0.00 87 1012.6
20260504192410 14 350 9.7 14.5 0.00 0.05 0.00 87 1012.6
20260504191410 14 350 9.7 14.5 0.00 0.05 0.00 87 1012.6
20260504185410 14 350 9.7 14.5 0.00 0.05 0.00 87 1012.6
20260504184413 14 350 9.7 14.5 0.00 0.05 0.00 87 1012.6
20260504183410 14 350 9.7 14.5 0.00 0.05 0.00 87 1012.6
20260504181409 14 350 9.7 14.5 0.00 0.05 0.00 87 1012.6
20260504180409 14 350 9.7 14.5 0.00 0.05 0.00 87 1012.6
20260504174410 14 350 9.7 14.5 0.00 0.05 0.00 87 1012.6
20260504173409 14 350 9.7 14.5 0.00 0.05 0.00 87 1012.6
20260504172410 14 350 9.7 14.5 0.00 0.05 0.00 87 1012.6
20260504170409 15 5 9.7 17.7 0.00 0.05 0.00 86 1012.6
20260504160409 16 44 8.0 16.1 0.00 0.05 0.00 85 1012.7
20260504140403 17 9 9.7 17.7 0.00 1.70 0.00 83 1012.7
20260504110403 16 92 3.2 9.7 0.00 2.03 0.00 84 1013.1
20260504081402 13 83 0.0 3.2 0.00 2.03 0.00 92 1013.0
20260504070408 12 34 1.6 4.8 0.00 2.03 0.00 96 1012.3
20260504050407 11 351 1.6 3.2 0.00 2.03 0.00 97 1011.8
20260504045407 11 317 1.6 4.8 0.00 2.03 0.00 97 1011.7
20260504044407 11 360 3.2 6.4 0.00 2.03 0.00 97 1011.6
20260504043410 11 333 3.2 6.4 0.00 2.03 0.00 97 1011.5
20260504042407 11 341 4.8 9.7 0.00 2.03 0.00 97 1011.6
20260504041407 12 331 4.8 9.7 0.00 2.03 0.00 97 1011.6
20260504040407 12 317 3.2 6.4 0.00 2.03 0.00 97 1011.6